User: anonymous   Login
Location: Newark
(16.3678°N, 77.8722°E)
Time: 21:15:12
(UTC+00:00)
Language:

Transit 2A Rocket - Orbit

View from above orbital plane
View from above orbital plane
View from above satellite
View from above satellite

Ground track
Ground track

The orbit data is extracted from the following two-line orbital elements,

1    47U 60007C   19343.63045773 -.00000044  00000-0  15109-4 0  9998
2    47  66.6662 305.2319 0220345  82.6463 279.9623 14.42062018107614
Epoch (UTC): 09 December 2019 15:07:51
Eccentricity: 0.0220345
inclination: 66.6662°
perigee height: 594 km
apogee height: 909 km
right ascension of ascending node: 305.2319°
argument of perigee: 82.6463°
revolutions per day: 14.42062018
mean anomaly at epoch: 279.9623°
orbit number at epoch: 10761

The dashed part of the orbit path shows where the satellite is in the earth's shadow,  

DLR